Weather History for KMGN - April, 2013

Change the Weather History Date:

Friday, April 19, 2013

  Actual Average Record
Temperature  
Mean Temperature 38 °F -  
Max Temperature 47 °F - - ()
Min Temperature 27 °F - - ()
Degree Days  
Heating Degree Days 28    
Moisture  
Dew Point 31 °F    
Average Humidity 81    
Maximum Humidity 98    
Minimum Humidity 68    
Precipitation  
Precipitation 0.00 in - - ()
Sea Level Pressure  
Sea Level Pressure 29.33 in    
Wind  
Wind Speed 15 mph (WSW)    
Max Wind Speed 28 mph    
Max Gust Speed 40 mph    
Visibility 8 miles    
Events Rain , Snow    
T = Trace of Precipitation, MM = Missing Value Source: NWS Daily Summary

Daily Weather History Graph

Daily Weather History Graph

Search for Another Location

Airport or City:

Trip Planner

Search our weather history database for the weather conditions in past years. The results will help you decide how hot, cold, wet, or windy it might be!

Date:

Astronomy

Apr. 19, 2013 Rise Set
Actual Time 6:46 AM EDT 8:31 PM EDT
Civil Twilight 6:15 AM EDT 9:02 PM EDT
Nautical Twilight 5:37 AM EDT 9:41 PM EDT
Astronomical Twilight 4:56 AM EDT 10:22 PM EDT
Moon 1:57 PM EDT (4/19) 3:20 AM EDT (4/19)
Length of Visible Light 14h 47m
Length of Day
13h 44m
First Quarter, 61% of the Moon is Illuminated
Apr 19
First Quarter
Apr 25
Full
May 2
Last Quarter
May 9
New
May 18
First Quarter

Hourly Weather History & Observations

Time (EDT) Temp. Windchill Dew Point Humidity Pressure Visibility Wind Dir Wind Speed Gust Speed Precip Events Conditions
12:16 AM 40.3 °F 31.9 °F 39.4 °F 97% 29.38 in 1.8 mi ENE 16.1 mph - N/A   Overcast
12:35 AM 40.1 °F 31.6 °F 39.2 °F 97% 29.36 in 1.0 mi ENE 16.1 mph - N/A   Overcast
12:55 AM 41.0 °F 33.5 °F 40.1 °F 97% 29.34 in 0.8 mi ENE 13.8 mph - N/A   Overcast
1:16 AM 40.5 °F 32.8 °F 39.9 °F 98% 29.34 in 2.5 mi ENE 13.8 mph - N/A Rain Light Rain
1:35 AM 41.5 °F 35.4 °F 40.8 °F 97% 29.33 in 7.0 mi ENE 10.4 mph - N/A Rain Light Rain
1:55 AM 42.8 °F 37.0 °F 42.1 °F 97% 29.31 in 10.0 mi ENE 10.4 mph - N/A   Overcast
2:16 AM 45.0 °F 40.6 °F 44.2 °F 97% 29.29 in 7.0 mi East 8.1 mph - N/A   Overcast
2:35 AM 45.7 °F 42.0 °F 45.0 °F 97% 29.28 in 7.0 mi East 6.9 mph - N/A   Drizzle
2:55 AM 46.6 °F - 46.0 °F 98% 29.28 in 4.0 mi Calm Calm - N/A Rain Rain
3:15 AM 47.7 °F - 46.9 °F 97% 29.29 in 3.0 mi West 6.9 mph - N/A Rain Heavy Rain
3:35 AM 45.3 °F 40.1 °F 44.6 °F 97% 29.29 in 5.0 mi West 10.4 mph 19.6 mph N/A   Heavy Drizzle
3:55 AM 43.0 °F 38.8 °F 42.3 °F 97% 29.29 in 5.0 mi West 6.9 mph - N/A   Drizzle
4:15 AM 41.7 °F 36.7 °F 40.8 °F 97% 29.29 in 5.0 mi WSW 8.1 mph - N/A   Drizzle
4:35 AM 41.4 °F 34.7 °F 40.5 °F 97% 29.28 in 10.0 mi SW 11.5 mph 18.4 mph N/A   Overcast
4:56 AM 41.2 °F 35.0 °F 40.1 °F 96% 29.27 in 10.0 mi SW 10.4 mph 19.6 mph N/A   Overcast
5:15 AM 40.5 °F 34.1 °F 38.7 °F 93% 29.26 in 10.0 mi WSW 10.4 mph 16.1 mph N/A   Overcast
5:35 AM 40.1 °F 34.1 °F 38.3 °F 93% 29.27 in 10.0 mi WSW 9.2 mph 16.1 mph N/A   Light Drizzle
5:55 AM 39.4 °F 31.4 °F 37.0 °F 91% 29.26 in 10.0 mi SW 13.8 mph 18.4 mph N/A Rain Light Rain
6:15 AM 38.7 °F 31.4 °F 36.0 °F 90% 29.26 in 10.0 mi SW 11.5 mph 18.4 mph N/A   Light Drizzle
6:55 AM 37.6 °F 30.5 °F 34.3 °F 88% 29.26 in 10.0 mi SW 10.4 mph 17.3 mph N/A   Overcast
7:15 AM 37.6 °F 29.1 °F 33.8 °F 86% 29.26 in 10.0 mi SW 13.8 mph 24.2 mph N/A   Overcast
7:35 AM 37.6 °F 30.0 °F 33.4 °F 85% 29.26 in 10.0 mi SW 11.5 mph 21.9 mph N/A   Overcast
7:55 AM 37.6 °F 29.1 °F 33.3 °F 84% 29.26 in 10.0 mi SW 13.8 mph 21.9 mph N/A   Overcast
8:15 AM 37.6 °F 29.6 °F 33.3 °F 84% 29.25 in 10.0 mi SW 12.7 mph 20.7 mph N/A   Overcast
8:35 AM 36.1 °F 26.9 °F 33.1 °F 89% 29.25 in 4.0 mi SSW 15.0 mph 19.6 mph N/A Rain Rain
8:55 AM 35.6 °F 26.2 °F 32.0 °F 87% 29.24 in 10.0 mi SW 15.0 mph 24.2 mph N/A   Overcast
9:15 AM 35.2 °F 27.1 °F 30.6 °F 83% 29.24 in 10.0 mi SW 11.5 mph 21.9 mph N/A   Overcast
9:35 AM 35.2 °F 25.0 °F 30.4 °F 82% 29.24 in 10.0 mi SSW 17.3 mph 27.6 mph N/A   Overcast
9:55 AM 35.4 °F 27.8 °F 29.7 °F 80% 29.23 in 10.0 mi SW 10.4 mph 19.6 mph N/A   Overcast
10:15 AM 36.1 °F 26.9 °F 29.1 °F 76% 29.23 in 10.0 mi SW 15.0 mph 23.0 mph N/A   Overcast
10:55 AM 37.2 °F 28.3 °F 29.3 °F 73% 29.23 in 10.0 mi SW 15.0 mph 28.8 mph N/A   Overcast
11:15 AM 37.6 °F 27.4 °F 29.1 °F 72% 29.23 in 10.0 mi SW 19.6 mph 33.4 mph N/A   Overcast
11:35 AM 37.6 °F 27.7 °F 29.1 °F 72% 29.24 in 10.0 mi SW 18.4 mph 31.1 mph N/A   Overcast
11:55 AM 36.0 °F 26.3 °F 27.9 °F 72% 29.23 in 10.0 mi SW 16.1 mph 25.3 mph N/A   Overcast
12:15 PM 37.6 °F 28.8 °F 28.6 °F 70% 29.23 in 10.0 mi SW 15.0 mph 26.5 mph N/A   Overcast
12:35 PM 37.6 °F 28.4 °F 28.0 °F 68% 29.22 in 10.0 mi SSW 16.1 mph 25.3 mph N/A   Overcast
12:55 PM 37.4 °F 28.5 °F 28.9 °F 71% 29.23 in 10.0 mi SW 15.0 mph 28.8 mph N/A   Overcast
1:15 PM 37.6 °F 26.9 °F 27.9 °F 68% 29.22 in 10.0 mi SW 21.9 mph 32.2 mph N/A   Overcast
1:35 PM 37.6 °F 26.1 °F 28.0 °F 68% 29.21 in 10.0 mi SW 25.3 mph 36.8 mph N/A   Overcast
1:55 PM 37.6 °F 26.6 °F 29.1 °F 72% 29.21 in 10.0 mi SW 23.0 mph 33.4 mph N/A   Overcast
2:15 PM 37.6 °F 26.9 °F 29.5 °F 73% 29.21 in 10.0 mi SSW 21.9 mph 33.4 mph N/A   Overcast
2:35 PM 37.6 °F 26.9 °F 29.3 °F 72% 29.21 in 10.0 mi SW 21.9 mph 39.1 mph N/A   Overcast
2:55 PM 37.6 °F 26.3 °F 29.8 °F 74% 29.22 in 7.0 mi SW 24.2 mph 40.3 mph N/A   Overcast
3:15 PM 36.5 °F 24.4 °F 30.0 °F 77% 29.23 in 7.0 mi SW 26.5 mph 34.5 mph N/A   Overcast
3:36 PM 35.2 °F 23.0 °F 30.2 °F 82% 29.24 in 4.0 mi SW 25.3 mph 38.0 mph N/A Snow Light Snow
3:55 PM 34.2 °F 23.0 °F 30.4 °F 86% 29.26 in 2.0 mi WSW 19.6 mph 33.4 mph N/A Snow Light Snow
4:15 PM 35.2 °F 23.5 °F 31.3 °F 85% 29.27 in 7.0 mi SW 23.0 mph 34.5 mph N/A Snow Light Snow
4:36 PM 35.2 °F 23.2 °F 30.9 °F 84% 29.28 in 4.0 mi SW 24.2 mph 35.7 mph N/A Snow Light Snow
4:55 PM 35.2 °F 22.5 °F 29.7 °F 80% 29.29 in 10.0 mi SW 27.6 mph 36.8 mph N/A Snow Light Snow
5:15 PM 35.2 °F 24.1 °F 28.2 °F 76% 29.31 in 5.0 mi WSW 20.7 mph 35.7 mph N/A Snow Light Snow
5:35 PM 35.2 °F 23.8 °F 27.3 °F 73% 29.33 in 10.0 mi WSW 21.9 mph 35.7 mph N/A   Overcast
5:55 PM 35.2 °F 23.5 °F 27.7 °F 74% 29.35 in 10.0 mi WSW 23.0 mph 39.1 mph N/A   Overcast
6:15 PM 35.2 °F 23.2 °F 26.1 °F 69% 29.37 in 10.0 mi WSW 24.2 mph 38.0 mph N/A   Overcast
6:35 PM 35.2 °F 23.5 °F 25.7 °F 68% 29.39 in 10.0 mi WSW 23.0 mph 33.4 mph N/A   Scattered Clouds
6:55 PM 32.9 °F 21.6 °F 24.4 °F 71% 29.40 in 10.0 mi WSW 18.4 mph 28.8 mph N/A   Mostly Cloudy
7:15 PM 32.9 °F 21.0 °F 24.1 °F 70% 29.43 in 10.0 mi West 20.7 mph 33.4 mph N/A   Mostly Cloudy
7:35 PM 32.9 °F 20.7 °F 25.0 °F 73% 29.44 in 10.0 mi West 21.9 mph 34.5 mph N/A   Mostly Cloudy
7:55 PM 31.6 °F 19.7 °F 25.0 °F 76% 29.46 in 5.0 mi West 19.6 mph 34.5 mph N/A Snow Light Snow
8:15 PM 30.6 °F 19.4 °F 23.2 °F 74% 29.49 in 7.0 mi West 16.1 mph 33.4 mph N/A Snow Light Snow
8:35 PM 29.3 °F 15.6 °F 21.2 °F 72% 29.50 in 10.0 mi West 23.0 mph 36.8 mph N/A   Overcast
8:55 PM 28.2 °F 14.5 °F 20.7 °F 73% 29.53 in 10.0 mi West 21.9 mph 33.4 mph N/A   Overcast
9:15 PM 28.2 °F 16.8 °F 20.3 °F 72% 29.54 in 10.0 mi West 15.0 mph 26.5 mph N/A   Overcast
9:35 PM 28.0 °F 16.5 °F 20.3 °F 73% 29.57 in 10.0 mi West 15.0 mph 27.6 mph N/A   Overcast
9:55 PM 28.0 °F 17.5 °F 21.2 °F 76% 29.58 in 10.0 mi West 12.7 mph 26.5 mph N/A   Scattered Clouds
10:15 PM 28.0 °F 14.9 °F 21.0 °F 75% 29.59 in 10.0 mi West 19.6 mph 31.1 mph N/A   Mostly Cloudy
10:35 PM 28.0 °F 16.5 °F 19.8 °F 71% 29.60 in 10.0 mi West 15.0 mph 28.8 mph N/A   Mostly Cloudy
10:55 PM 28.0 °F 16.5 °F 19.8 °F 71% 29.61 in 7.0 mi West 15.0 mph 25.3 mph N/A Snow Light Snow
11:15 PM 28.0 °F 17.0 °F 20.3 °F 73% 29.62 in 7.0 mi West 13.8 mph 21.9 mph N/A Snow Light Snow
11:35 PM 28.0 °F 15.3 °F 19.9 °F 72% 29.63 in 7.0 mi West 18.4 mph 25.3 mph N/A Snow Light Snow
11:55 PM 27.1 °F 15.9 °F 21.4 °F 79% 29.64 in 2.5 mi West 13.8 mph 24.2 mph N/A Snow Light Snow